Regional Weather Roundup
Issued by NWS

Home | Current Version | Previous Version | Graphics & Text | Print | Product List | Glossary On
Versions: 1 2 3 4 5 6 7 8 9 10 11 12 13 14 15 16 17 18 19 20 21 22 23 24 25 26 27 28 29 30 31 32 33 34 35 36 37 38 39 40 41 42 43 44 45 46 47 48 49 50
523
ASUS43 KIND 241409
RWRIN

WEATHER ROUNDUP FOR INDIANA
NATIONAL WEATHER SERVICE INDIANAPOLIS IN
900 AM EST FRI FEB 24 2017

NOTE: "FAIR" INDICATES FEW OR NO CLOUDS BELOW 12,000 FEET WITH NO
SIGNIFICANT WEATHER AND/OR OBSTRUCTIONS TO VISIBILITY.

* - STATION DOES NOT REPORT WEATHER SUCH AS PRECIPITATION OR FOG.

+ - STATION NOT QUALITY CONTROLLED BY THE NATIONAL WEATHER SERVICE.
    USE DATA WITH CAUTION...ESPECIALLY DEWPOINT AND RELATIVE
    HUMIDITY OBSERVATIONS.

INZ001>003-010>013-019-020-241500-
NORTHWEST INDIANA

CITY           SKY/WX    TMP DP  RH WIND       PRES   REMARKS
KNOX *+        MOSUNNY   57  41  54 S14G21    29.47R
LA PORTE +     CLOUDY    58  55  88 SW12G20   29.49R
MICHIGAN CITY+ MOSUNNY   59  57  94 SW14G20   29.48R
MONTICELLO +   MOSUNNY   61  55  78 S13       29.50R
RENSSELAER +   SUNNY     61  55  82 S15G22    29.48S
VALPARAISO     SUNNY     59  56  89 S12       29.48R

$$

LMZ046-743>745-241500-
SOUTHERN LAKE MICHIGAN

STATION/POSITION TIME  TEMP    WIND        PRES    WAVE
                       AIR SEA DIR/SP/G            HT
                 (UTC) (F)     (DEG/KT/KT) (MB)    (FT)
BURNS HARBOR     1340   38     290/  8/ 14  999.3R
MICHIGAN CITY    1340   57     200/ 18/ 20   N/A

$$

INZ004-005-014>016-021>024-241500-
NORTH CENTRAL INDIANA

CITY           SKY/WX    TMP DP  RH WIND       PRES   REMARKS
ELKHART        LGT RAIN  55  54  94 E21       29.41F
GOSHEN         LGT RAIN  58  52  80 S14       29.51F
LOGANSPORT +   PTSUNNY   61  54  77 S14       29.52F
PERU/GRISSOM   MOSUNNY   61  59  93 S17       29.52F
ROCHESTER +    LGT RAIN  61  55  82 S13G20    29.50F
SOUTH BEND     CLOUDY    58  55  90 SW9       29.48F
WARSAW +       PTSUNNY   59  55  88 S8        29.52F

$$

INZ006>009-017-018-025>027-241500-
NORTHEAST INDIANA

CITY           SKY/WX    TMP DP  RH WIND       PRES   REMARKS
ANGOLA *+      CLOUDY    48  48 100 S9        29.58R
AUBURN +       PTSUNNY   52  50  93 CALM      29.59R
FORT WAYNE     MOSUNNY   60  54  80 S15       29.58R
HUNTINGTON +   SUNNY     61  55  82 S14G20    29.57S
KENDALLVILLE + CLOUDY    53  53  99 S9        29.57R

$$

INZ028-029-035-036-043>045-051>053-241500-
WEST CENTRAL INDIANA

CITY           SKY/WX    TMP DP  RH WIND       PRES   REMARKS
LAFAYETTE      MOSUNNY   63  56  78 S14G21    29.51F
TERRE HAUTE    MOSUNNY   63  55  75 S16G24    29.55F

$$

INZ030>032-037>040-046>048-054>057-064-065-241500-
CENTRAL INDIANA

CITY           SKY/WX    TMP DP  RH WIND       PRES   REMARKS
ANDERSON       SUNNY     61  55  82 S17G29    29.62
CP ATTERBURY + SUNNY     63  54  72 S9        29.63F
COLUMBUS       SUNNY     63  57  82 S16       29.64S
FRANKFORT +    SUNNY     66  58  74 S21G29    29.54F
GREENWOOD *+   SUNNY     62  56  82 S7        29.62F
INDIANAPOLIS   MOSUNNY   63  55  75 S12       29.58F
-EAGLE CREEK   SUNNY     63  55  75 S9        29.58F
KOKOMO +       MOSUNNY   60  55  83 S17       29.56F
MARION +       SUNNY     60  54  82 S18G25    29.58F
MT COMFORT *+  SUNNY     61  54  77 S15       29.61F
SHELBYVILLE    SUNNY     63  54  72 S16G22    29.62S
ZIONSVILLE +   SUNNY     61  55  80 S14G21    29.57F

$$

INZ033-034-041-042-049-050-058-059-241500-
EAST CENTRAL INDIANA

CITY           SKY/WX    TMP DP  RH WIND       PRES   REMARKS
MUNCIE         SUNNY     62  55  77 S20G26    29.60S

$$

INZ060-061-067>069-081>083-085>088-241500-
SOUTHWEST INDIANA

CITY           SKY/WX    TMP DP  RH WIND       PRES   REMARKS
EVANSVILLE     CLOUDY    65  55  70 S17G24    29.62S
HUNTINGBURG *+ SUNNY     65  57  75 S17G30    29.64S
WASHINGTON +   SUNNY     64  54  69 S22G30    29.59S

$$

INZ062-063-066-070>080-084-089>092-241500-
SOUTH CENTRAL AND SOUTHEAST INDIANA

CITY           SKY/WX    TMP DP  RH WIND       PRES   REMARKS
BEDFORD +      MOSUNNY  N/A N/A N/A S8        29.63S
BLOOMINGTON    SUNNY     66  54  65 S21G29    29.60F
MADISON *+     PTSUNNY   61  54  77 S10       29.71R
NORTH VERNON + CLOUDY    61  55  82 S10       29.68R
SEYMOUR +      MOSUNNY   64  55  72 S15       29.65S

$$





USA.gov is the U.S. government's official web portal to all federal, state and local government web resources and services.